Location: Bambrugge
(50.9212°N, 3.9299°E)
Time: 06:01:43
(UTC+00:00)

SL-16 R/B - Pass Details

Date: 15 August 2024
Orbit: 842 x 845 km, 71.0° (Epoch: 16 September)

Event Time Altitude Azimuth Distance (km) Brightness Sun altitude
Exits shadow 21:48:50 24° 98° (E) 1,687 3.4 -20.3°
Drops below altitude 10° 21:52:59 10° 51° (NE) 2,473 4.7 -20.7°
Sets 21:55:51 0° 38° (NE) 3,414 5.7 -20.9°
